Ord, NE

9:31 AM CDT on April 23, 2017 (GMT -0500)
Sharp

Weather History for KODX - February, 2012

Change the Weather History Date:

Monday, February 13, 2012

  Actual Average Record
Temperature  
Mean Temperature 21 °F 27 °F  
Max Temperature 31 °F 39 °F 68 °F (2011)
Min Temperature 10 °F 15 °F -6 °F (2007)
Degree Days  
Heating Degree Days 44 38  
Month to date heating degree days 553 503  
Since 1 July heating degree days 4271 4479  
Cooling Degree Days 0 0  
Month to date cooling degree days 0 0  
Year to date cooling degree days 0 0  
Moisture  
Dew Point 18 °F    
Average Humidity 85    
Maximum Humidity 100    
Minimum Humidity 69    
Precipitation  
Precipitation 0.08 in 0.01 in 0.97 in (1906)
Month to date precipitation 0.56 0.23  
Year to date precipitation 0.69 0.60  
Sea Level Pressure  
Sea Level Pressure 29.78 in    
Wind  
Wind Speed 5 mph (South)    
Max Wind Speed 15 mph    
Max Gust Speed 17 mph    
Visibility 4 miles    
Events Fog , Snow    
T = Trace of Precipitation, MM = Missing Value Source: NWS Daily Summary

Daily Weather History Graph

Daily Weather History Graph

Search for Another Location

Airport or City:

Trip Planner

Search our weather history database for the weather conditions in past years. The results will help you decide how hot, cold, wet, or windy it might be!

Date:

Astronomy

Feb. 13, 2012 Rise Set
Actual Time 7:34 AM CST 6:06 PM CST
Civil Twilight 7:05 AM CST 6:34 PM CST
Nautical Twilight 6:33 AM CST 7:07 PM CST
Astronomical Twilight 6:00 AM CST 7:39 PM CST
Moon 12:10 AM CST (2/13) 10:27 AM CST (2/13)
Length of Visible Light 11h 29m
Length of Day
10h 31m
Waning Gibbous, 61% of the Moon is Illuminated
Feb 13
Waning Gibbous
Feb 14
Last Quarter
Feb 21
New
Feb 29
First Quarter
Mar 8
Full

Hourly Weather History & Observations

Time (CST) Temp. Windchill Dew Point Humidity Pressure Visibility Wind Dir Wind Speed Gust Speed Precip Events Conditions
12:00 AM 19.4 °F 11.5 °F 17.6 °F 93% 29.89 in 1.0 mi SSE 5.8 mph - 0.01 in Snow Light Snow
12:04 AM 19.4 °F 11.5 °F 15.8 °F 86% 29.89 in 2.0 mi SSE 5.8 mph - 0.01 in Snow Light Snow
12:13 AM 19.4 °F 9.5 °F 15.8 °F 86% 29.88 in 1.0 mi SSE 8.1 mph - 0.01 in Snow Light Snow
12:25 AM 19.4 °F 9.5 °F 17.6 °F 93% 29.88 in 1.2 mi South 8.1 mph - 0.02 in Snow Light Snow
12:45 AM 19.4 °F 7.9 °F 17.6 °F 93% 29.87 in 0.8 mi South 10.4 mph - 0.03 in Snow Light Snow
12:53 AM 19.9 °F 8.6 °F 17.1 °F 89% 29.96 in 0.8 mi South 10.4 mph - 0.04 in Snow Light Snow
1:00 AM 19.4 °F 7.9 °F 17.6 °F 93% 29.86 in 0.5 mi South 10.4 mph - 0.00 in Fog , Snow Snow
1:05 AM 19.4 °F 8.6 °F 17.6 °F 93% 29.85 in 0.5 mi SSE 9.2 mph - 0.01 in Fog , Snow Snow
1:17 AM 19.4 °F 7.9 °F 17.6 °F 93% 29.85 in 0.5 mi South 10.4 mph - 0.02 in Fog , Snow Snow
1:21 AM 19.4 °F 7.9 °F 17.6 °F 93% 29.84 in 1.2 mi South 10.4 mph - 0.02 in Snow Light Snow
1:24 AM 19.4 °F 7.2 °F 17.6 °F 93% 29.84 in 2.0 mi South 11.5 mph - 0.02 in Snow Light Snow
1:40 AM 19.4 °F 8.6 °F 17.6 °F 93% 29.83 in 1.0 mi SSE 9.2 mph - 0.02 in Snow Light Snow
1:53 AM 19.9 °F 11.1 °F 17.1 °F 89% 29.93 in 3.0 mi SSE 6.9 mph - 0.02 in Snow Light Snow
2:53 AM 19.9 °F 11.1 °F 16.0 °F 85% 29.90 in 10.0 mi SSE 6.9 mph - 0.01 in   Overcast
3:13 AM 19.4 °F 10.4 °F 15.8 °F 86% 29.79 in 10.0 mi SSE 6.9 mph - N/A   Overcast
3:40 AM 19.4 °F 12.8 °F 17.6 °F 93% 29.77 in 10.0 mi SSE 4.6 mph - N/A   Overcast
3:53 AM 19.9 °F 12.1 °F 17.1 °F 89% 29.86 in 10.0 mi SE 5.8 mph - N/A   Overcast
4:53 AM 19.9 °F 12.1 °F 17.1 °F 89% 29.85 in 10.0 mi SSE 5.8 mph - N/A   Overcast
5:53 AM 19.9 °F 13.4 °F 19.0 °F 96% 29.84 in 5.0 mi SSE 4.6 mph - N/A   Overcast
6:17 AM 21.2 °F 13.6 °F 19.4 °F 93% 29.74 in 4.0 mi SSE 5.8 mph - N/A   Overcast
6:53 AM 21.0 °F 13.4 °F 19.0 °F 92% 29.83 in 4.0 mi SSE 5.8 mph - N/A   Overcast
7:53 AM 21.9 °F 14.5 °F 19.9 °F 92% 29.81 in 2.5 mi SSE 5.8 mph - N/A   Overcast
8:53 AM 23.0 °F 17.0 °F 21.0 °F 92% 29.81 in 1.5 mi SSE 4.6 mph - 0.00 in Snow Light Snow
9:12 AM 23.0 °F 15.8 °F 21.2 °F 93% 29.72 in 2.5 mi South 5.8 mph - 0.00 in Snow Light Snow
9:20 AM 24.8 °F 19.1 °F 21.2 °F 86% 29.72 in 4.0 mi South 4.6 mph - 0.00 in   Overcast
9:53 AM 24.1 °F 17.0 °F 21.9 °F 91% 29.81 in 2.5 mi South 5.8 mph - 0.00 in Snow Light Snow
9:59 AM 24.8 °F 16.9 °F 21.2 °F 86% 29.71 in 1.0 mi South 6.9 mph - 0.00 in Snow Light Snow
10:07 AM 24.8 °F 17.9 °F 21.2 °F 86% 29.71 in 0.8 mi South 5.8 mph - 0.00 in Snow Light Snow
10:13 AM 24.8 °F 17.9 °F 23.0 °F 93% 29.71 in 1.0 mi South 5.8 mph - 0.01 in Snow Light Snow
10:20 AM 24.8 °F 17.9 °F 23.0 °F 93% 29.71 in 1.5 mi South 5.8 mph - 0.01 in Snow Light Snow
10:35 AM 24.8 °F 17.9 °F 23.0 °F 93% 29.71 in 0.8 mi South 5.8 mph - 0.01 in Snow Light Snow
10:53 AM 25.0 °F 18.1 °F 23.0 °F 92% 29.79 in 1.0 mi SW 5.8 mph - 0.01 in Snow Light Snow
11:00 AM 26.6 °F 20.0 °F 23.0 °F 86% 29.70 in 1.8 mi SSW 5.8 mph - 0.00 in Snow Light Snow
11:16 AM 26.6 °F 20.0 °F 23.0 °F 86% 29.70 in 0.8 mi SW 5.8 mph - 0.01 in Snow Light Snow
11:30 AM 26.6 °F 20.0 °F 23.0 °F 86% 29.70 in 1.0 mi SW 5.8 mph - 0.01 in Snow Light Snow
11:41 AM 26.6 °F 21.2 °F 24.8 °F 93% 29.70 in 1.5 mi SW 4.6 mph - 0.01 in Snow Light Snow
11:45 AM 26.6 °F 21.2 °F 24.8 °F 93% 29.70 in 2.0 mi SW 4.6 mph - 0.01 in Snow Light Snow
11:53 AM 27.0 °F 19.5 °F 24.1 °F 89% 29.78 in 2.5 mi SW 6.9 mph - 0.01 in Snow Light Snow
12:04 PM 26.6 °F 19.1 °F 24.8 °F 93% 29.70 in 3.0 mi WSW 6.9 mph - 0.00 in Snow Light Snow
12:11 PM 26.6 °F 20.0 °F 23.0 °F 86% 29.69 in 4.0 mi WSW 5.8 mph - 0.00 in Snow Light Snow
12:20 PM 28.4 °F 21.2 °F 23.0 °F 80% 29.69 in 4.0 mi WSW 6.9 mph - 0.00 in Snow Light Snow
12:32 PM 28.4 °F 21.2 °F 23.0 °F 80% 29.69 in 4.0 mi West 6.9 mph - 0.00 in Snow Light Snow
12:53 PM 28.0 °F 20.0 °F 21.9 °F 78% 29.76 in 10.0 mi West 8.1 mph - 0.00 in   Overcast
1:53 PM 28.9 °F 22.8 °F 23.0 °F 78% 29.74 in 10.0 mi West 5.8 mph - N/A   Overcast
2:41 PM 30.2 °F 24.3 °F 21.2 °F 69% 29.65 in 10.0 mi North 5.8 mph - N/A   Scattered Clouds
2:53 PM 30.0 °F 23.2 °F 21.9 °F 72% 29.73 in 10.0 mi North 6.9 mph - N/A   Mostly Cloudy
3:53 PM 30.0 °F 25.2 °F 21.9 °F 72% 29.75 in 10.0 mi NNW 4.6 mph - N/A   Clear
4:53 PM 30.9 °F - 21.9 °F 69% 29.74 in 10.0 mi Calm Calm - N/A   Mostly Cloudy
5:53 PM 26.1 °F - 21.9 °F 84% 29.76 in 10.0 mi Calm Calm - N/A   Clear
6:53 PM 19.9 °F - 17.1 °F 89% 29.79 in 9.0 mi Calm Calm - N/A   Clear
7:53 PM 18.0 °F 12.7 °F 15.1 °F 88% 29.81 in 7.0 mi South 3.5 mph - N/A   Clear
8:53 PM 18.0 °F 11.1 °F 16.0 °F 92% 29.80 in 7.0 mi South 4.6 mph - N/A   Clear
9:53 PM 14.0 °F - 10.9 °F 88% 29.83 in 4.0 mi Calm Calm - N/A   Clear
10:50 PM 10.4 °F - 8.6 °F 92% 29.72 in 1.5 mi Calm Calm - N/A   Clear
10:53 PM 10.0 °F - 8.1 °F 92% 29.82 in 0.5 mi Calm Calm - N/A Fog Light Freezing Fog
11:00 PM 10.4 °F - 10.4 °F 100% 29.72 in 0.2 mi Calm Calm - N/A Fog Light Freezing Fog
11:10 PM 10.4 °F - 8.6 °F 92% 29.72 in 0.2 mi Calm Calm - N/A Fog Light Freezing Fog
11:22 PM 10.4 °F - 6.8 °F 85% 29.72 in 2.0 mi Calm Calm - N/A   Clear
11:33 PM 12.2 °F - 10.4 °F 92% 29.73 in 1.0 mi Calm Calm - N/A   Clear
11:43 PM 10.4 °F - 8.6 °F 92% 29.73 in 2.0 mi Calm Calm - N/A   Clear
11:50 PM 12.2 °F - 10.4 °F 92% 29.72 in 3.0 mi Calm Calm - N/A   Clear
11:53 PM 12.9 °F - 10.9 °F 92% 29.82 in 2.5 mi Calm Calm - N/A   Clear